Location: Horowhenua
(40.7500°S, 175.3333°E)
Time: 12:25:59
(UTC+00:00)

ALOS - Pass Details

Date: 28 January 2023
Orbit: 679 x 682 km, 98.0° (Epoch: 29 March)

Event Time Altitude Azimuth Distance (km) Brightness Sun altitude
Exits shadow 14:00:02 29° 79° (E) 1,251 3.6 -27.6°
Maximum altitude 14:01:17 34° 110° (ESE) 1,129 3.7 -27.5°
Drops below altitude 10° 14:05:32 10° 174° (S) 2,155 5.7 -27.2°
Sets 14:07:56 0° 183° (S) 3,078 6.6 -27.0°
